Regional Weather Roundup
Issued by NWS Albany, NY

Home | Current Version | Previous Version | Text Only | Print | Product List | Glossary On
Versions: 1 2 3 4 5 6 7 8 9 10 11 12 13 14 15 16 17 18 19 20 21 22 23 24 25 26 27 28 29 30 31 32 33 34 35 36 37 38 39 40 41 42 43 44 45 46 47 48 49 50
000
ASUS41 KALY 041410
RWRALY

NEW YORK STATE HOURLY WEATHER ROUNDUP
NATIONAL WEATHER SERVICE ALBANY NY
1000 AM EDT WED MAY 04 2016

NOTE: "FAIR" INDICATES FEW OR NO CLOUDS BELOW 12,000 FEET WITH NO
SIGNIFICANT WEATHER AND/OR NO OBSTRUCTIONS TO VISIBILITY.

NYZ032-033-038>043-046>054-057>066-NYZ062>081-082-084-041500-
EAST


CITY           SKY/WX    TMP DP  RH WIND       PRES   REMARKS
ALBANY         CLOUDY    51  45  79 S9        29.81F
GLENS FALLS    CLOUDY    49  46  90 NE3       29.82F
POUGHKEEPSIE   CLOUDY    51  46  83 CALM      29.80S
NEWBURGH       CLOUDY    48  48 100 E7        29.81S
MONTGOMERY     LGT RAIN  50  45  83 E8        29.80S
WHITE PLAINS   PTSUNNY   49  44  83 E6        29.80R
NEW YORK CITY  CLOUDY    52  46  80 NE16      29.79F
CENTRAL PARK   CLOUDY    51  43  74 NE13G18   29.82S
$$

NYZ005>009-017-018-044>046-055-056-041500-
CENTRAL


CITY           SKY/WX    TMP DP  RH WIND       PRES   REMARKS
FULTON         CLOUDY    57  47  69 VRB5      29.75S
SYRACUSE       CLOUDY    55  48  77 VRB3      29.74F
ROME           CLOUDY    51  49  92 SE7       29.78S FOG
ELMIRA         CLOUDY    50  45  83 CALM      29.74F
BINGHAMTON     LGT RAIN  48  46  93 SE5       29.74S
MONTICELLO     CLOUDY    45  45 100 E9        29.79F
$$

NYZ026>034-041>043-087-041500-
NORTH


CITY           SKY/WX    TMP DP  RH WIND       PRES   REMARKS
WATERTOWN      CLOUDY    54  44  69 CALM      29.76S
FORT DRUM      NOT AVBL
MASSENA        CLOUDY    47  39  74 NE14      29.81F
SARANAC LAKE   CLOUDY    48  42  80 E3        29.77S
PLATTSBURGH      N/A     45  40  82 E3        29.83
$$

NYZ001>004-010>016-019>021-085-041500-
WEST


CITY           SKY/WX    TMP DP  RH WIND       PRES   REMARKS
NIAGARA FALLS  PTSUNNY   58  41  53 E6        29.72F
BUFFALO        PTSUNNY   54  40  59 NE5       29.73F
DUNKIRK        PTSUNNY   53  44  71 N5        29.72F
JAMESTOWN      MOSUNNY   46  43  87 CALM      29.71F
WELLSVILLE     CLOUDY    49  44  83 SE6       29.73F
ROCHESTER      PTSUNNY   57  43  59 CALM      29.74F
PENN YAN       PTSUNNY   55  47  74 CALM      29.74F
$$

             KEY
       WCI = WIND CHILL INDEX
       VSB = VISIBILITY
       HX  = HEAT INDEX
$$



USA.gov is the U.S. government's official web portal to all federal, state and local government web resources and services.